This is the latest recevied weather packets stored in our database for station/object K7CTM. If no packets are shown the sender has not sent any weather packets the latest 10 day(s).
| Time | Temp. | Humidity | Pressure | Rain* | Wind** | Luminosity | Snow |
|---|---|---|---|---|---|---|---|
| 1787829364 | 15° C | 69% | 1030.4 hPa | 0 mm | - | 0 W/m² | - |
| 1787829059 | 15° C | 67% | 1030.3 hPa | 0 mm | - | 0 W/m² | - |
| 1787828755 | 15.56° C | 66% | 1030 hPa | 0 mm | - | 0 W/m² | - |
| 1787828451 | 15° C | 67% | 1030.2 hPa | 0 mm | - | 0 W/m² | - |
| 1787828150 | 15° C | 70% | 1030.2 hPa | 0 mm | - | 0 W/m² | - |
| 1787827849 | 15° C | 72% | 1030.3 hPa | 0 mm | - | 0 W/m² | - |
| 1787827544 | 15° C | 73% | 1030.2 hPa | 0 mm | - | 0 W/m² | - |
| 1787827244 | 14.44° C | 74% | 1030.3 hPa | 0 mm | - | 0 W/m² | - |
| 1787826943 | 15° C | 71% | 1030 hPa | 0 mm | - | 0 W/m² | - |
| 1787826638 | 15° C | 70% | 1030.3 hPa | 0 mm | - | 0 W/m² | - |
| 1787826334 | 15° C | 71% | 1030.3 hPa | 0 mm | - | 0 W/m² | - |
| 1787826031 | 15.56° C | 67% | 1030 hPa | 0 mm | - | 0 W/m² | - |
| 1787825729 | 15.56° C | 66% | 1030.2 hPa | 0 mm | - | 0 W/m² | - |
| 1787825428 | 16.11° C | 63% | 1030 hPa | 0 mm | - | 0 W/m² | - |
| 1787825127 | 16.11° C | 64% | 1029.9 hPa | 0 mm | - | 0 W/m² | - |
| 1787824824 | 16.67° C | 61% | 1030.2 hPa | 0 mm | - | 0 W/m² | - |
| 1787824519 | 16.67° C | 62% | 1030 hPa | 0 mm | - | 0 W/m² | - |
| 1787824219 | 17.22° C | 61% | 1029.9 hPa | 0 mm | - | 0 W/m² | - |
| 1787823915 | 17.22° C | 61% | 1030 hPa | 0 mm | - | 0 W/m² | - |
| 1787823610 | 16.67° C | 63% | 1030.3 hPa | 0 mm | - | 0 W/m² | - |
| 1787823305 | 16.67° C | 64% | 1030.3 hPa | 0 mm | - | 0 W/m² | - |
| 1787823004 | 15.56° C | 68% | 1030.5 hPa | 0 mm | - | 0 W/m² | - |
| 1787822698 | 15.56° C | 70% | 1030.5 hPa | 0 mm | - | 0 W/m² | - |
| 1787822397 | 15.56° C | 71% | 1030.6 hPa | 0 mm | - | 0 W/m² | - |
| 1787822093 | 15.56° C | 72% | 1030.7 hPa | 0 mm | - | 0 W/m² | - |
* Rain latest hour (hover to see other rain measurements)
** Current wind speed in m/s (hover to see current wind gust speed)